[[{"header":{"parameterUnit":"m.s-1","parameterCategory":1,"la1":30.2991,"la2":30.254,"lo1":-89.0895,"lo2":-89.0444,"dy":0.0017,"dx":0.0017,"nx":28,"ny":28,"refTime":"2023-09-16T09:00:00:Z","depth":0,"parameterNumber":2,"parameterNumberName":"U-component_of_WINDS"},"data":[0,0,0,0,0,0,0,0,0,0,0,0,0,0,0,0,0,0,0,0,0,0,0,0,0,0,0,0,0,0,0,0,0,0,0,0,0,0,0,0,0,0,0,0,0,0,0,0,0,0,0,0,0,0,0,0,0,0,2.1258,2.1259,0,2.1391,2.1393,2.1394,2.1427,2.1426,2.1425,2.1424,2.1566,2.157,2.1575,0,0,0,0,0,0,0,0,0,0,0,0,0,2.1037,2.1041,2.1258,2.1259,2.1261,2.1391,2.1393,2.1395,2.1427,2.1426,2.1425,2.1424,2.1564,2.157,2.1575,0,0,0,0,0,0,0,0,0,0,0,0,0,2.1148,2.1042,2.1257,2.1293,2.1297,2.139,2.1393,2.1395,2.1427,2.1426,2.1424,2.1423,2.1562,2.1569,2.1576,2.1645,0,0,2.1597,2.16,0,0,0,0,0,0,0,0,2.1142,2.1156,2.1286,2.129,2.1296,2.1391,2.1367,2.1479,2.1427,2.1378,2.1424,2.1423,2.1509,2.152,2.1548,2.1652,2.1658,2.1598,2.1602,2.1605,2.1607,0,0,0,0,0,0,0,2.1134,2.115,2.1311,2.1288,2.1294,2.1304,2.1318,2.1388,2.1449,2.1382,2.1385,2.14,2.1511,2.1541,2.1552,2.166,2.1597,2.1603,2.1608,2.161,2.1829,2.183,0,0,0,0,0,0,2.1119,2.1144,2.1306,2.1315,2.1214,2.1309,2.1325,2.1362,2.1449,2.1461,2.1401,2.1401,2.153,2.1544,2.1557,2.1644,2.1605,2.1611,2.1615,2.1827,2.1829,2.1831,0,0,0,0,0,0,2.1114,2.1133,2.1301,2.123,2.1252,2.1314,2.1355,2.1365,2.1395,2.1463,2.1474,2.142,2.153,2.1547,2.1623,2.165,2.1614,2.162,2.1825,2.1828,2.183,2.1819,0,0,0,0,0,0,2.1108,2.1131,2.1157,2.123,2.1256,2.1363,2.1357,2.1369,2.1406,2.1408,2.1484,2.1495,2.153,2.1612,2.163,2.1659,2.1626,2.1823,2.1826,2.1829,2.1818,2.1821,2.1824,0,0,0,0,0,2.11,2.1149,2.1158,2.1177,2.1288,2.1364,2.1379,2.1417,2.1408,2.1435,2.1479,2.1493,2.1644,2.162,2.164,2.1671,2.1822,2.1825,2.1829,2.1816,2.182,2.1824,0,0,0,0,0,0,2.1078,2.1159,2.117,2.1244,2.1297,2.137,2.1405,2.142,2.1477,2.1476,2.1523,2.154,2.1613,2.165,2.1621,2.1744,2.1733,2.1741,2.1716,2.1721,2.1724,2.1714,2.1632,0,0,0,0,0,2.1082,2.1135,2.1204,2.1263,2.1289,2.1342,2.1377,2.1401,2.1458,2.1481,2.1531,2.1587,2.1648,2.1687,2.1746,2.1823,2.1841,2.1855,2.1858,2.1861,2.1867,2.1912,2.1919,2.1843,2.1843,2.1843,0,0,2.1091,2.1141,2.1172,2.126,2.1304,2.1359,2.1361,2.1419,2.1462,2.1491,2.1565,2.1603,2.167,2.1747,2.1783,2.178,2.1892,2.1865,2.1867,2.1872,2.1917,2.1924,2.193,2.1846,2.1845,2.1845,0,0,2.1134,2.1178,2.1232,2.1276,2.1342,2.1378,2.1391,2.1462,2.1488,2.1563,2.1586,2.1638,2.1741,2.1788,2.1825,2.1888,2.1904,2.1907,2.1924,2.1968,2.1974,2.1979,2.2003,2.201,2.1913,2.1913,2.1913,0,2.1137,2.122,2.1258,2.1316,2.1355,2.1383,2.1439,2.1481,2.1563,2.159,2.1585,2.1715,2.1762,2.1851,2.1866,2.1895,2.1913,2.1898,2.1969,2.1975,2.1981,2.2004,2.2013,2.1913,2.1913,2.1913,2.1913,0,2.1221,2.1278,2.1315,2.1393,2.1436,2.1492,2.1541,2.158,2.1602,2.1638,2.1716,2.1773,2.1844,2.1868,2.1889,2.1961,2.1956,2.196,2.195,2.1988,2.201,2.2019,2.1913,2.1913,2.1913,2.1913,0,0,2.1253,2.1353,2.1365,2.1402,2.1477,2.1524,2.1583,2.1652,2.1685,2.1742,2.1794,2.1881,2.1885,2.1927,2.1955,2.1993,2.2041,2.1992,2.1994,2.2,2.2124,2.2121,2.2131,2.2052,2.2054,2.2055,2.2119,0,2.1307,2.1412,2.1449,2.1536,2.1591,2.1619,2.1671,2.1725,2.1761,2.1814,2.1856,2.1916,2.1916,2.1942,2.1981,2.2027,2.2067,2.2023,2.2102,2.2105,2.2084,2.2142,2.2139,2.2197,2.2128,2.213,2.2131,0,2.1383,2.144,2.1532,2.1602,2.1627,2.1672,2.174,2.179,2.1852,2.1876,2.1923,2.1949,2.2014,2.2001,2.2092,2.2061,2.2097,2.2124,2.2127,2.2136,2.212,2.2153,2.2216,2.2224,2.2145,2.2144,2.2143,0,2.1398,2.1498,2.1566,2.1597,2.168,2.1712,2.1749,2.1809,2.1849,2.1908,2.1935,2.2002,2.2038,2.209,2.2134,2.212,2.2222,2.2212,2.2245,2.2244,2.2265,2.2263,2.2335,2.2288,2.2288,2.2287,2.2287,0,2.1454,2.151,2.1574,2.1616,2.168,2.1724,2.1786,2.1825,2.1879,2.1931,2.196,2.2008,2.2063,2.2119,2.2154,2.2225,2.2241,2.2264,2.2273,2.2261,2.2258,2.2285,2.2282,2.229,2.2289,2.2289,2.2288,0,2.1481,2.1527,2.1603,2.1676,2.1696,2.174,2.1804,2.1847,2.1885,2.195,2.1968,2.2029,2.2096,2.2145,2.2232,2.2256,2.2333,2.2341,2.2311,2.2315,2.2346,2.2342,2.2437,2.2452,2.2394,2.2395,2.2395,0,2.1514,2.1557,2.1635,2.1671,2.1707,2.1765,2.1805,2.1851,2.1892,2.1967,2.2002,2.2071,2.2128,2.2236,2.2289,2.2356,2.2367,2.2395,2.2377,2.2365,2.2368,2.2365,2.237,2.2398,2.2398,2.2398,2.2399,0,2.1566,2.1587,2.1644,2.1709,2.1756,2.181,2.1864,2.1893,2.1948,2.1993,2.2062,2.2107,2.2196,2.2265,2.2338,2.2378,2.2398,2.2404,2.2415,2.2404,2.2385,2.2396,2.2318,2.2401,2.2401,2.2401,2.2401,2.2401,2.1598,2.1638,2.1699,2.1762,2.1808,2.1858,2.1902,2.1946,2.2004,2.2079,2.2103,2.2174,2.2238,2.2337,2.2379,2.2437,2.2436,2.2452,2.2456,2.2459,2.2459,2.2376,2.245,2.245,2.245,2.245,2.245,0,2.1652,2.1693,2.1751,2.1825,2.1875,2.1889,2.195,2.1991,2.2053,2.211,2.2166,2.2246,2.2314,2.2372,2.2443,2.2478,2.249,2.2496,2.2493,2.2503,2.2456,2.2439,2.2485,2.2485,2.2485,2.2485,2.2485,2.2485,2.1686,2.1756,2.1784,2.1877,2.1919,2.1988,2.2022,2.207,2.2115,2.2202,2.2258,2.2296,2.2354,2.2429,2.2493,2.2508,2.2533,2.2537,2.2555,2.251,2.2506,2.2502,2.2486,2.2542,2.2542,2.2597,2.2598,2.2598]},{"header":{"parameterUnit":"m.s-1","parameterCategory":1,"la1":30.2991,"la2":30.254,"lo1":-89.0895,"lo2":-89.0444,"dy":0.0017,"dx":0.0017,"nx":28,"ny":28,"refTime":"2023-09-16T09:00:00:Z","depth":0,"parameterNumber":3,"parameterNumberName":"V-component_of_WINDS"},"data":[0,0,0,0,0,0,0,0,0,0,0,0,0,0,0,0,0,0,0,0,0,0,0,0,0,0,0,0,0,0,0,0,0,0,0,0,0,0,0,0,0,0,0,0,0,0,0,0,0,0,0,0,0,0,0,0,0,0,1.1324,1.1325,0,1.1358,1.1358,1.1358,1.1376,1.1376,1.1376,1.1376,1.1407,1.1407,1.1408,0,0,0,0,0,0,0,0,0,0,0,0,0,1.1271,1.1272,1.1324,1.1325,1.1325,1.1358,1.1358,1.1358,1.1376,1.1376,1.1376,1.1376,1.1406,1.1407,1.1408,0,0,0,0,0,0,0,0,0,0,0,0,0,1.1298,1.1273,1.1324,1.1338,1.1339,1.1357,1.1358,1.1359,1.1376,1.1376,1.1376,1.1376,1.1406,1.1407,1.1408,1.1415,0,0,1.1412,1.1413,0,0,0,0,0,0,0,0,1.1297,1.13,1.1335,1.1337,1.1338,1.1363,1.1351,1.1377,1.1375,1.1362,1.1376,1.1376,1.1392,1.1394,1.14,1.1416,1.1418,1.1412,1.1413,1.1413,1.1414,0,0,0,0,0,0,0,1.1295,1.1299,1.1337,1.1336,1.1338,1.1341,1.1345,1.1356,1.1376,1.1363,1.1364,1.1368,1.1393,1.1399,1.1401,1.1418,1.1412,1.1413,1.1414,1.1414,1.144,1.144,0,0,0,0,0,0,1.1291,1.1297,1.1336,1.1338,1.1317,1.1342,1.1346,1.1355,1.1376,1.1379,1.1368,1.1369,1.1397,1.14,1.1402,1.1411,1.1413,1.1415,1.1415,1.144,1.144,1.144,0,0,0,0,0,0,1.129,1.1295,1.1335,1.1318,1.1324,1.1342,1.1352,1.1355,1.1362,1.138,1.1383,1.1371,1.1397,1.1401,1.1412,1.1412,1.1415,1.1416,1.144,1.144,1.144,1.1428,0,0,0,0,0,0,1.1289,1.1294,1.1298,1.1318,1.1324,1.1345,1.1352,1.1356,1.1364,1.1365,1.1384,1.1387,1.1397,1.141,1.1413,1.1414,1.1417,1.144,1.144,1.144,1.1428,1.1427,1.1427,0,0,0,0,0,1.1287,1.1293,1.1298,1.1303,1.133,1.1345,1.1348,1.1362,1.1364,1.1367,1.1379,1.1386,1.1411,1.1411,1.1414,1.1416,1.144,1.144,1.144,1.1429,1.1428,1.1427,0,0,0,0,0,0,1.1271,1.1296,1.1302,1.1315,1.1328,1.1348,1.1353,1.136,1.1372,1.1372,1.1387,1.1391,1.14,1.1409,1.1408,1.1422,1.1426,1.1427,1.1416,1.1416,1.1415,1.1412,1.1418,0,0,0,0,0,1.127,1.1281,1.1301,1.1311,1.1317,1.1334,1.1341,1.135,1.1363,1.1368,1.1381,1.1393,1.1403,1.141,1.1421,1.1429,1.1433,1.1432,1.1431,1.143,1.143,1.1435,1.1434,1.144,1.144,1.144,0,0,1.1266,1.1281,1.1287,1.1308,1.1319,1.133,1.1338,1.1349,1.1356,1.137,1.1381,1.139,1.1404,1.1414,1.1419,1.1422,1.143,1.143,1.1429,1.143,1.1434,1.1434,1.1433,1.144,1.144,1.144,0,0,1.1265,1.1278,1.1287,1.1297,1.1314,1.1325,1.1327,1.1345,1.1352,1.1364,1.1374,1.1382,1.14,1.141,1.1417,1.1417,1.1424,1.142,1.1416,1.142,1.1419,1.1419,1.1418,1.1418,1.1421,1.1421,1.1421,0,1.1258,1.1275,1.129,1.13,1.1308,1.1321,1.133,1.1339,1.1358,1.1363,1.1366,1.1388,1.1398,1.141,1.141,1.1416,1.1417,1.1419,1.1418,1.1418,1.1418,1.1418,1.1418,1.142,1.142,1.142,1.142,0,1.1265,1.1277,1.1282,1.1301,1.1309,1.1318,1.1333,1.134,1.1348,1.1357,1.1368,1.1381,1.1394,1.1398,1.1405,1.141,1.1411,1.1416,1.142,1.1417,1.1417,1.1417,1.1419,1.1419,1.142,1.142,0,0,1.1257,1.1282,1.1284,1.1292,1.1311,1.1319,1.1328,1.1342,1.1347,1.1359,1.1366,1.138,1.1385,1.1393,1.1401,1.1405,1.1403,1.1409,1.1409,1.1407,1.1408,1.1404,1.1404,1.1408,1.1408,1.1408,1.1407,0,1.1258,1.1276,1.1288,1.13,1.131,1.1322,1.133,1.1341,1.135,1.1359,1.1369,1.1378,1.1384,1.1389,1.1393,1.1403,1.1404,1.1403,1.1413,1.1414,1.1409,1.1404,1.14,1.1399,1.1407,1.1407,1.1407,0,1.1262,1.1274,1.1287,1.1304,1.1309,1.1315,1.1328,1.1337,1.1349,1.1355,1.1364,1.1372,1.1381,1.1384,1.1395,1.1394,1.1399,1.1405,1.1405,1.1406,1.141,1.1405,1.1398,1.1398,1.1407,1.1407,1.1407,0,1.1253,1.1273,1.1283,1.129,1.1309,1.1314,1.1322,1.1335,1.1341,1.1352,1.1356,1.1367,1.1373,1.1381,1.1392,1.1394,1.1402,1.1406,1.1406,1.1406,1.1407,1.1407,1.1401,1.1411,1.1411,1.1411,1.1411,0,1.1253,1.126,1.1279,1.1286,1.1294,1.1308,1.1315,1.1324,1.1335,1.1342,1.1353,1.1359,1.1373,1.1381,1.1389,1.1396,1.1399,1.1403,1.1405,1.1402,1.1402,1.1406,1.1406,1.1411,1.1411,1.1411,1.1411,0,1.1245,1.1258,1.127,1.1287,1.1292,1.1297,1.1311,1.1317,1.1327,1.1335,1.1338,1.1352,1.1362,1.1373,1.1386,1.1392,1.1398,1.1401,1.1394,1.1395,1.1394,1.1394,1.1391,1.1391,1.14,1.14,1.14,0,1.1244,1.125,1.1268,1.1274,1.1282,1.1292,1.1299,1.1312,1.1318,1.1332,1.1336,1.1346,1.1355,1.1369,1.138,1.139,1.1393,1.1391,1.1395,1.1391,1.1393,1.1392,1.1392,1.139,1.139,1.139,1.139,0,1.1241,1.1247,1.1257,1.1269,1.1277,1.1287,1.1297,1.1301,1.1316,1.1323,1.1333,1.134,1.1353,1.1362,1.1373,1.138,1.1387,1.1389,1.1389,1.1386,1.1381,1.1383,1.1391,1.1389,1.1389,1.1389,1.1389,1.1389,1.1236,1.1242,1.1255,1.1265,1.1275,1.1284,1.129,1.13,1.1308,1.1321,1.1327,1.1337,1.1348,1.1363,1.137,1.1376,1.1379,1.138,1.138,1.138,1.1378,1.138,1.1378,1.1379,1.1379,1.1379,1.1379,0,1.1233,1.1242,1.1251,1.1265,1.1273,1.128,1.1291,1.1297,1.1305,1.1315,1.1324,1.1334,1.1344,1.1355,1.1364,1.1367,1.1371,1.1369,1.1369,1.1371,1.1376,1.1375,1.1367,1.1367,1.1367,1.1367,1.1367,1.1367,1.1232,1.1242,1.1249,1.1262,1.1271,1.1281,1.1286,1.1294,1.1302,1.1314,1.1322,1.1329,1.1339,1.1349,1.1357,1.136,1.1363,1.1361,1.1364,1.1369,1.137,1.1371,1.137,1.1361,1.1361,1.1358,1.1358,1.1358]}]]